Time,TemperatureF,DewpointF,PressureIn,WindDirection,WindDirectionDegrees,WindSpeedMPH,WindSpeedGustMPH,Humidity,HourlyPrecipIn,Conditions,Clouds,dailyrainin,SoftwareType,DateUTC
2013-08-06 00:00:00,62.6,25.3,29.88,NW,321,0.0,0.0,24,0.00,,---,0.00,VWS V12.07,2013-08-06 04:00:00,
2013-08-06 00:03:00,62.6,25.3,29.88,NW,322,0.0,0.0,24,0.00,,---,0.00,VWS V12.07,2013-08-06 04:03:00,
2013-08-06 00:09:00,62.4,25.2,29.88,NW,322,0.0,0.0,24,0.00,,---,0.00,VWS V12.07,2013-08-06 04:09:00,
2013-08-06 00:12:00,62.4,25.2,29.88,NW,322,0.0,0.0,24,0.00,,---,0.00,VWS V12.07,2013-08-06 04:12:00,
2013-08-06 00:15:00,62.2,25.0,29.88,NW,322,0.0,0.0,24,0.00,,---,0.00,VWS V12.07,2013-08-06 04:15:00,
2013-08-06 00:18:00,62.2,25.0,29.88,NW,322,0.0,0.0,24,0.00,,---,0.00,VWS V12.07,2013-08-06 04:18:00,
2013-08-06 00:24:00,62.4,25.2,29.88,NW,322,0.0,0.0,24,0.00,,---,0.00,VWS V12.07,2013-08-06 04:24:00,
2013-08-06 00:30:00,62.4,25.2,29.88,NW,322,0.0,0.0,24,0.00,,---,0.00,VWS V12.07,2013-08-06 04:30:00,
2013-08-06 00:36:00,62.4,25.2,29.88,NW,322,0.0,0.0,24,0.00,,---,0.00,VWS V12.07,2013-08-06 04:36:00,
2013-08-06 00:39:00,62.4,25.2,29.88,NW,322,0.0,0.0,24,0.00,,---,0.00,VWS V12.07,2013-08-06 04:39:00,
2013-08-06 00:45:00,62.2,25.0,29.88,NW,322,0.0,0.0,24,0.00,,---,0.00,VWS V12.07,2013-08-06 04:45:00,
2013-08-06 00:51:00,62.1,24.9,29.88,NW,322,0.0,0.0,24,0.00,,---,0.00,VWS V12.07,2013-08-06 04:51:00,
2013-08-06 00:57:00,61.9,24.7,29.88,NW,322,0.0,0.0,24,0.00,,---,0.00,VWS V12.07,2013-08-06 04:57:00,
2013-08-06 01:03:00,61.9,24.7,29.88,NW,322,0.0,0.0,24,0.00,,---,0.00,VWS V12.07,2013-08-06 05:03:00,
2013-08-06 01:09:00,61.9,24.7,29.88,NW,322,0.0,0.0,24,0.00,,---,0.00,VWS V12.07,2013-08-06 05:09:00,
2013-08-06 01:14:00,61.9,24.7,29.88,NW,322,0.0,0.0,24,0.00,,---,0.00,VWS V12.07,2013-08-06 05:14:00,
2013-08-06 01:22:00,61.9,24.7,29.88,NW,321,0.0,0.0,24,0.00,,---,0.00,VWS V12.07,2013-08-06 05:22:00,
2013-08-06 01:28:00,61.9,24.7,29.88,NW,321,0.0,0.0,24,0.00,,---,0.00,VWS V12.07,2013-08-06 05:28:00,
2013-08-06 01:34:00,61.7,24.6,29.88,NW,322,0.0,0.0,24,0.00,,---,0.00,VWS V12.07,2013-08-06 05:34:00,
2013-08-06 01:40:00,61.3,24.3,29.88,NW,322,0.0,0.0,24,0.00,,---,0.00,VWS V12.07,2013-08-06 05:40:00,
2013-08-06 01:46:00,61.2,24.1,29.88,NW,322,0.0,0.0,24,0.00,,---,0.00,VWS V12.07,2013-08-06 05:46:00,
2013-08-06 01:52:00,61.2,24.1,29.88,NW,322,0.0,0.0,24,0.00,,---,0.00,VWS V12.07,2013-08-06 05:52:00,
2013-08-06 01:58:00,61.2,24.1,29.88,NW,322,0.0,0.0,24,0.00,,---,0.00,VWS V12.07,2013-08-06 05:58:00,
2013-08-06 02:04:00,61.0,24.0,29.88,NW,322,0.0,0.0,24,0.00,,---,0.00,VWS V12.07,2013-08-06 06:04:00,
2013-08-06 02:10:00,61.0,24.0,29.88,NW,322,0.0,0.0,24,0.00,,---,0.00,VWS V12.07,2013-08-06 06:10:00,
2013-08-06 02:16:00,61.0,24.9,29.88,NW,322,0.0,0.0,25,0.00,,---,0.00,VWS V12.07,2013-08-06 06:16:00,
2013-08-06 02:22:00,60.8,24.8,29.88,NW,322,0.0,0.0,25,0.00,,---,0.00,VWS V12.07,2013-08-06 06:22:00,
2013-08-06 02:28:00,60.6,24.6,29.88,NW,322,0.0,0.0,25,0.00,,---,0.00,VWS V12.07,2013-08-06 06:28:00,
2013-08-06 02:34:00,60.4,24.5,29.88,NW,321,0.0,0.0,25,0.00,,---,0.00,VWS V12.07,2013-08-06 06:34:00,
2013-08-06 02:40:00,60.3,24.3,29.88,NW,321,0.0,0.0,25,0.00,,---,0.00,VWS V12.07,2013-08-06 06:40:00,
2013-08-06 02:46:00,60.1,24.2,29.88,NW,322,0.0,0.0,25,0.00,,---,0.00,VWS V12.07,2013-08-06 06:46:00,
2013-08-06 02:52:00,59.9,24.0,29.88,NW,322,0.0,0.0,25,0.00,,---,0.00,VWS V12.07,2013-08-06 06:52:00,
2013-08-06 02:58:00,59.7,23.9,29.88,NW,322,0.0,0.0,25,0.00,,---,0.00,VWS V12.07,2013-08-06 06:58:00,
2013-08-06 03:04:00,59.7,24.8,29.88,NW,322,0.0,0.0,26,0.00,,---,0.00,VWS V12.07,2013-08-06 07:04:00,
2013-08-06 03:10:00,59.7,24.8,29.91,NW,322,0.0,0.0,26,0.00,,---,0.00,VWS V12.07,2013-08-06 07:10:00,
2013-08-06 03:16:00,59.7,24.8,29.91,NW,322,0.0,0.0,26,0.00,,---,0.00,VWS V12.07,2013-08-06 07:16:00,
2013-08-06 03:22:00,59.5,24.6,29.91,NW,322,0.0,0.0,26,0.00,,---,0.00,VWS V12.07,2013-08-06 07:22:00,
2013-08-06 03:28:00,59.4,24.5,29.91,NW,322,0.0,0.0,26,0.00,,---,0.00,VWS V12.07,2013-08-06 07:28:00,
2013-08-06 03:33:00,59.4,25.4,29.91,NW,322,0.0,0.0,27,0.00,,---,0.00,VWS V12.07,2013-08-06 07:33:00,
2013-08-06 03:39:00,59.4,25.4,29.91,NW,322,0.0,0.0,27,0.00,,---,0.00,VWS V12.07,2013-08-06 07:39:00,
2013-08-06 03:45:00,59.2,25.2,29.91,NW,322,0.0,0.0,27,0.00,,---,0.00,VWS V12.07,2013-08-06 07:45:00,
2013-08-06 03:51:00,59.0,25.1,29.91,NW,322,0.0,0.0,27,0.00,,---,0.00,VWS V12.07,2013-08-06 07:51:00,
2013-08-06 03:57:00,58.8,25.8,29.91,NW,322,0.0,0.0,28,0.00,,---,0.00,VWS V12.07,2013-08-06 07:57:00,
2013-08-06 04:03:00,58.8,25.8,29.91,NW,322,0.0,0.0,28,0.00,,---,0.00,VWS V12.07,2013-08-06 08:03:00,
2013-08-06 04:09:00,58.5,25.5,29.91,NW,322,0.0,0.0,28,0.00,,---,0.00,VWS V12.07,2013-08-06 08:09:00,
2013-08-06 04:15:00,58.1,26.0,29.91,NW,322,0.0,0.0,29,0.00,,---,0.00,VWS V12.07,2013-08-06 08:15:00,
2013-08-06 04:21:00,58.1,26.0,29.91,NW,321,0.0,0.0,29,0.00,,---,0.00,VWS V12.07,2013-08-06 08:21:00,
2013-08-06 04:27:00,57.9,26.7,29.91,NW,322,0.0,0.0,30,0.00,,---,0.00,VWS V12.07,2013-08-06 08:27:00,
2013-08-06 04:33:00,57.9,26.7,29.91,NW,322,0.0,0.0,30,0.00,,---,0.00,VWS V12.07,2013-08-06 08:33:00,
2013-08-06 04:39:00,57.9,27.5,29.91,NW,322,0.0,0.0,31,0.00,,---,0.00,VWS V12.07,2013-08-06 08:39:00,
2013-08-06 04:45:00,57.7,27.3,29.91,NW,322,0.0,0.0,31,0.00,,---,0.00,VWS V12.07,2013-08-06 08:45:00,
2013-08-06 04:51:00,57.4,27.0,29.91,NW,322,0.0,0.0,31,0.00,,---,0.00,VWS V12.07,2013-08-06 08:51:00,
2013-08-06 04:57:00,57.4,27.8,29.91,NW,322,0.0,0.0,32,0.00,,---,0.00,VWS V12.07,2013-08-06 08:57:00,
2013-08-06 05:03:00,57.4,28.5,29.91,NW,322,0.0,0.0,33,0.00,,---,0.00,VWS V12.07,2013-08-06 09:03:00,
2013-08-06 05:09:00,57.4,28.5,29.91,NW,322,0.0,0.0,33,0.00,,---,0.00,VWS V12.07,2013-08-06 09:09:00,
2013-08-06 05:15:00,57.2,29.1,29.91,NW,322,0.0,0.0,34,0.00,,---,0.00,VWS V12.07,2013-08-06 09:15:00,
2013-08-06 05:21:00,57.2,29.1,29.91,NW,322,0.0,0.0,34,0.00,,---,0.00,VWS V12.07,2013-08-06 09:21:00,
2013-08-06 05:27:00,57.0,29.7,29.91,NW,322,0.0,0.0,35,0.00,,---,0.00,VWS V12.07,2013-08-06 09:27:00,
2013-08-06 05:33:00,56.8,29.5,29.91,NW,322,0.0,0.0,35,0.00,,---,0.00,VWS V12.07,2013-08-06 09:33:00,
2013-08-06 05:39:00,56.7,29.3,29.91,NW,322,0.0,0.0,35,0.00,,---,0.00,VWS V12.07,2013-08-06 09:39:00,
2013-08-06 05:45:00,56.8,29.5,29.91,NW,321,0.0,0.0,35,0.00,,---,0.00,VWS V12.07,2013-08-06 09:45:00,
2013-08-06 05:52:00,57.0,29.7,29.91,NW,322,0.0,0.0,35,0.00,,---,0.00,VWS V12.07,2013-08-06 09:52:00,
2013-08-06 05:58:00,57.0,29.7,29.94,NW,321,0.0,0.0,35,0.00,,---,0.00,VWS V12.07,2013-08-06 09:58:00,
2013-08-06 06:04:00,57.0,30.4,29.94,NW,322,0.0,0.0,36,0.00,,---,0.00,VWS V12.07,2013-08-06 10:04:00,
2013-08-06 06:10:00,57.0,30.4,29.94,NW,322,0.0,0.0,36,0.00,,---,0.00,VWS V12.07,2013-08-06 10:10:00,
2013-08-06 06:16:00,57.4,30.7,29.94,NW,322,0.0,0.0,36,0.00,,---,0.00,VWS V12.07,2013-08-06 10:16:00,
2013-08-06 06:22:00,57.6,30.8,29.94,NW,322,0.0,0.0,36,0.00,,---,0.00,VWS V12.07,2013-08-06 10:22:00,
2013-08-06 06:28:00,57.7,31.0,29.94,NW,321,0.0,0.0,36,0.00,,---,0.00,VWS V12.07,2013-08-06 10:28:00,
2013-08-06 06:34:00,57.9,31.1,29.94,NW,322,0.0,0.0,36,0.00,,---,0.00,VWS V12.07,2013-08-06 10:34:00,
2013-08-06 06:40:00,58.1,31.3,29.94,NW,322,0.0,0.0,36,0.00,,---,0.00,VWS V12.07,2013-08-06 10:40:00,
2013-08-06 06:46:00,58.5,31.6,29.94,NW,322,0.0,0.0,36,0.00,,---,0.00,VWS V12.07,2013-08-06 10:46:00,
2013-08-06 06:52:00,58.6,31.8,29.94,NW,321,0.0,0.0,36,0.00,,---,0.00,VWS V12.07,2013-08-06 10:52:00,
2013-08-06 06:58:00,59.0,31.4,29.94,NW,322,0.0,0.0,35,0.00,,---,0.00,VWS V12.07,2013-08-06 10:58:00,
2013-08-06 07:04:00,59.4,31.7,29.94,NW,322,0.0,0.0,35,0.00,,---,0.00,VWS V12.07,2013-08-06 11:04:00,
2013-08-06 07:10:00,59.7,32.0,29.94,NW,322,0.0,0.0,35,0.00,,---,0.00,VWS V12.07,2013-08-06 11:10:00,
2013-08-06 07:16:00,60.1,31.6,29.94,NW,321,0.0,0.0,34,0.00,,---,0.00,VWS V12.07,2013-08-06 11:16:00,
2013-08-06 07:22:00,60.3,31.8,29.94,NW,322,0.0,0.0,34,0.00,,---,0.00,VWS V12.07,2013-08-06 11:22:00,
2013-08-06 07:27:00,60.4,32.0,29.94,NW,322,0.0,0.0,34,0.00,,---,0.00,VWS V12.07,2013-08-06 11:27:00,
2013-08-06 07:33:00,60.6,32.1,29.94,NW,322,0.0,0.0,34,0.00,,---,0.00,VWS V12.07,2013-08-06 11:33:00,
2013-08-06 07:39:00,61.0,30.2,29.94,NW,322,0.0,0.0,31,0.00,,---,0.00,VWS V12.07,2013-08-06 11:39:00,
2013-08-06 07:45:00,61.3,28.8,29.94,NW,314,0.0,0.0,29,0.00,,---,0.00,VWS V12.07,2013-08-06 11:45:00,
2013-08-06 07:50:00,61.7,29.1,29.94,NW,314,0.0,0.0,29,0.00,,---,0.00,VWS V12.07,2013-08-06 11:50:00,
2013-08-06 07:56:00,62.1,29.5,29.94,West,263,0.0,2.7,29,0.00,,---,0.00,VWS V12.07,2013-08-06 11:56:00,
2013-08-06 08:02:00,62.4,29.8,29.94,West,263,0.0,0.0,29,0.00,,---,0.00,VWS V12.07,2013-08-06 12:02:00,
2013-08-06 08:10:00,63.0,28.5,29.97,NW,308,0.0,3.6,27,0.00,,---,0.00,VWS V12.07,2013-08-06 12:10:00,
2013-08-06 08:16:00,63.7,29.1,29.97,WNW,295,0.0,0.0,27,0.00,,---,0.00,VWS V12.07,2013-08-06 12:16:00,
2013-08-06 08:22:00,65.3,30.5,29.97,WNW,295,0.0,0.0,27,0.00,,---,0.00,VWS V12.07,2013-08-06 12:22:00,
2013-08-06 08:28:00,66.4,29.5,29.94,WNW,295,0.0,0.0,25,0.00,,---,0.00,VWS V12.07,2013-08-06 12:28:00,
2013-08-06 08:34:00,67.1,29.1,29.94,WNW,284,3.1,3.1,24,0.00,,---,0.00,VWS V12.07,2013-08-06 12:34:00,
2013-08-06 08:40:00,67.3,29.3,29.97,WNW,284,0.0,3.1,24,0.00,,---,0.00,VWS V12.07,2013-08-06 12:40:00,
2013-08-06 08:46:00,67.8,28.7,29.97,WNW,297,3.6,5.4,23,0.00,,---,0.00,VWS V12.07,2013-08-06 12:46:00,
2013-08-06 08:52:00,68.2,29.0,29.97,NW,314,0.0,5.4,23,0.00,,---,0.00,VWS V12.07,2013-08-06 12:52:00,
2013-08-06 08:58:00,68.4,29.1,29.97,NW,314,0.0,5.4,23,0.00,,---,0.00,VWS V12.07,2013-08-06 12:58:00,
2013-08-06 09:04:00,68.4,29.1,29.97,WSW,254,0.0,3.1,23,0.00,,---,0.00,VWS V12.07,2013-08-06 13:04:00,
2013-08-06 09:10:00,68.5,29.3,29.97,WSW,254,0.0,3.1,23,0.00,,---,0.00,VWS V12.07,2013-08-06 13:10:00,
2013-08-06 09:16:00,68.9,29.6,29.97,WNW,283,0.0,0.0,23,0.00,,---,0.00,VWS V12.07,2013-08-06 13:16:00,
2013-08-06 09:22:00,69.1,28.7,29.97,WNW,284,0.0,4.0,22,0.00,,---,0.00,VWS V12.07,2013-08-06 13:22:00,
2013-08-06 09:28:00,69.4,29.0,29.97,WNW,284,0.0,4.0,22,0.00,,---,0.00,VWS V12.07,2013-08-06 13:28:00,
2013-08-06 09:34:00,69.8,29.3,29.97,WNW,283,0.0,2.7,22,0.00,,---,0.00,VWS V12.07,2013-08-06 13:34:00,
2013-08-06 09:39:00,70.0,29.4,29.97,West,270,0.0,3.6,22,0.00,,---,0.00,VWS V12.07,2013-08-06 13:39:00,
2013-08-06 09:45:00,70.2,29.6,29.97,South,184,0.0,0.0,22,0.00,,---,0.00,VWS V12.07,2013-08-06 13:45:00,
2013-08-06 09:51:00,70.3,29.7,29.97,WNW,284,0.0,4.5,22,0.00,,---,0.00,VWS V12.07,2013-08-06 13:51:00,
2013-08-06 09:57:00,70.7,30.0,29.97,NW,309,4.0,4.5,22,0.00,,---,0.00,VWS V12.07,2013-08-06 13:57:00,
2013-08-06 10:03:00,71.4,30.6,29.97,NW,313,0.0,4.9,22,0.00,,---,0.00,VWS V12.07,2013-08-06 14:03:00,
2013-08-06 10:09:00,72.1,30.1,29.97,WNW,293,0.0,4.9,21,0.00,,---,0.00,VWS V12.07,2013-08-06 14:09:00,
2013-08-06 10:15:00,72.1,30.1,29.97,NW,316,0.0,0.0,21,0.00,,---,0.00,VWS V12.07,2013-08-06 14:15:00,
2013-08-06 10:21:00,72.1,30.1,29.97,SSW,205,0.0,2.7,21,0.00,,---,0.00,VWS V12.07,2013-08-06 14:21:00,
2013-08-06 10:27:00,72.0,29.9,29.97,WNW,289,0.0,3.6,21,0.00,,---,0.00,VWS V12.07,2013-08-06 14:27:00,
2013-08-06 10:33:00,72.0,29.9,29.97,West,276,3.1,3.1,21,0.00,,---,0.00,VWS V12.07,2013-08-06 14:33:00,
2013-08-06 10:39:00,72.1,30.1,29.97,NW,311,0.0,5.4,21,0.00,,---,0.00,VWS V12.07,2013-08-06 14:39:00,
2013-08-06 10:45:00,72.3,30.2,29.97,ESE,123,0.0,0.0,21,0.00,,---,0.00,VWS V12.07,2013-08-06 14:45:00,
2013-08-06 10:51:00,72.5,27.9,29.97,WNW,302,4.0,5.8,19,0.00,,---,0.00,VWS V12.07,2013-08-06 14:51:00,
2013-08-06 10:57:00,72.5,27.9,29.97,NNW,330,0.0,6.3,19,0.00,,---,0.00,VWS V12.07,2013-08-06 14:57:00,
2013-08-06 11:03:00,72.7,28.1,29.97,NNW,336,0.0,0.0,19,0.00,,---,0.00,VWS V12.07,2013-08-06 15:03:00,
2013-08-06 11:09:00,73.0,28.4,29.97,NW,314,0.0,3.6,19,0.00,,---,0.00,VWS V12.07,2013-08-06 15:09:00,
2013-08-06 11:15:00,73.4,27.4,29.97,NNW,341,0.0,0.0,18,0.00,,---,0.00,VWS V12.07,2013-08-06 15:15:00,
2013-08-06 11:21:00,73.9,27.8,29.97,NW,304,0.0,6.3,18,0.00,,---,0.00,VWS V12.07,2013-08-06 15:21:00,
2013-08-06 11:27:00,74.5,28.2,29.97,WNW,299,0.0,6.3,18,0.00,,---,0.00,VWS V12.07,2013-08-06 15:27:00,
2013-08-06 11:34:00,74.8,28.5,29.97,WNW,298,0.0,2.7,18,0.00,,---,0.00,VWS V12.07,2013-08-06 15:34:00,
2013-08-06 11:40:00,75.2,28.8,29.97,East,97,0.0,2.7,18,0.00,,---,0.00,VWS V12.07,2013-08-06 15:40:00,
2013-08-06 11:46:00,75.2,28.8,29.97,NW,310,0.0,0.0,18,0.00,,---,0.00,VWS V12.07,2013-08-06 15:46:00,
2013-08-06 11:52:00,75.4,29.0,29.97,WNW,284,0.0,2.7,18,0.00,,---,0.00,VWS V12.07,2013-08-06 15:52:00,
2013-08-06 12:01:00,76.5,29.9,29.97,WNW,299,0.0,3.6,18,0.00,,---,0.00,VWS V12.07,2013-08-06 16:01:00,
2013-08-06 12:07:00,77.4,30.6,29.97,NNW,340,0.0,4.0,18,0.00,,---,0.00,VWS V12.07,2013-08-06 16:07:00,
2013-08-06 12:13:00,77.7,30.9,29.97,West,267,2.7,5.4,18,0.00,,---,0.00,VWS V12.07,2013-08-06 16:13:00,
2013-08-06 12:19:00,78.8,30.4,29.97,South,177,0.0,5.4,17,0.00,,---,0.00,VWS V12.07,2013-08-06 16:19:00,
2013-08-06 12:25:00,79.0,30.5,29.97,West,267,0.0,5.4,17,0.00,,---,0.00,VWS V12.07,2013-08-06 16:25:00,
2013-08-06 12:31:00,79.7,31.1,29.97,West,272,2.7,2.7,17,0.00,,---,0.00,VWS V12.07,2013-08-06 16:31:00,
2013-08-06 12:39:00,81.0,32.1,29.94,West,259,0.0,3.6,17,0.00,,---,0.00,VWS V12.07,2013-08-06 16:39:00,
2013-08-06 12:45:00,81.7,32.7,29.94,North,353,0.0,0.0,17,0.00,,---,0.00,VWS V12.07,2013-08-06 16:45:00,
2013-08-06 12:51:00,81.7,32.7,29.94,WNW,295,0.0,6.3,17,0.00,,---,0.00,VWS V12.07,2013-08-06 16:51:00,
2013-08-06 12:57:00,81.7,32.7,29.97,WNW,297,0.0,6.3,17,0.00,,---,0.00,VWS V12.07,2013-08-06 16:57:00,
2013-08-06 13:03:00,82.0,33.0,29.97,WNW,303,2.2,4.0,17,0.00,,---,0.00,VWS V12.07,2013-08-06 17:03:00,
2013-08-06 13:09:00,82.8,32.0,29.97,West,278,0.0,4.0,16,0.00,,---,0.00,VWS V12.07,2013-08-06 17:09:00,
2013-08-06 13:15:00,81.5,32.5,29.97,East,87,2.7,2.7,17,0.00,,---,0.00,VWS V12.07,2013-08-06 17:15:00,
2013-08-06 13:21:00,79.2,30.6,29.97,East,89,0.0,3.6,17,0.00,,---,0.00,VWS V12.07,2013-08-06 17:21:00,
2013-08-06 13:29:00,76.6,30.0,29.97,East,88,2.2,3.6,18,0.00,,---,0.00,VWS V12.07,2013-08-06 17:29:00,
2013-08-06 13:35:00,76.1,29.6,29.97,ENE,69,3.1,4.0,18,0.00,,---,0.00,VWS V12.07,2013-08-06 17:35:00,
2013-08-06 13:38:00,76.3,29.7,29.97,ENE,72,0.0,4.0,18,0.00,,---,0.00,VWS V12.07,2013-08-06 17:38:00,
2013-08-06 13:44:00,76.3,29.7,29.97,NE,50,2.7,4.0,18,0.00,,---,0.00,VWS V12.07,2013-08-06 17:44:00,
2013-08-06 13:50:00,75.9,29.4,29.97,ESE,119,3.1,3.6,18,0.00,,---,0.00,VWS V12.07,2013-08-06 17:50:00,
2013-08-06 13:56:00,76.1,29.6,29.97,East,92,0.0,6.3,18,0.00,,---,0.00,VWS V12.07,2013-08-06 17:56:00,
2013-08-06 14:02:00,76.1,29.6,29.97,East,82,0.0,4.0,18,0.00,,---,0.00,VWS V12.07,2013-08-06 18:02:00,
2013-08-06 14:08:00,76.6,30.0,29.97,East,98,0.0,5.8,18,0.00,,---,0.00,VWS V12.07,2013-08-06 18:08:00,
2013-08-06 14:14:00,76.5,29.9,29.97,East,82,2.7,5.8,18,0.00,,---,0.00,VWS V12.07,2013-08-06 18:14:00,
2013-08-06 14:20:00,75.7,29.3,29.97,ENE,77,2.7,3.6,18,0.00,,---,0.00,VWS V12.07,2013-08-06 18:20:00,
2013-08-06 14:26:00,75.2,28.8,29.97,East,98,0.0,4.0,18,0.00,,---,0.00,VWS V12.07,2013-08-06 18:26:00,
2013-08-06 14:32:00,75.4,29.0,29.97,ENE,78,0.0,3.1,18,0.00,,---,0.00,VWS V12.07,2013-08-06 18:32:00,
2013-08-06 14:38:00,75.6,29.1,29.97,SE,138,2.7,7.6,18,0.00,,---,0.00,VWS V12.07,2013-08-06 18:38:00,
2013-08-06 14:44:00,76.3,29.7,29.97,ESE,112,2.2,7.6,18,0.00,,---,0.00,VWS V12.07,2013-08-06 18:44:00,
2013-08-06 14:50:00,76.8,30.1,29.97,East,81,0.0,7.6,18,0.00,,---,0.00,VWS V12.07,2013-08-06 18:50:00,
2013-08-06 14:56:00,76.8,30.1,29.97,ENE,62,0.0,7.6,18,0.00,,---,0.00,VWS V12.07,2013-08-06 18:56:00,
2013-08-06 15:02:00,76.3,29.7,29.97,East,83,0.0,3.1,18,0.00,,---,0.00,VWS V12.07,2013-08-06 19:02:00,
2013-08-06 15:08:00,75.6,29.1,29.97,East,101,2.2,4.0,18,0.00,,---,0.00,VWS V12.07,2013-08-06 19:08:00,
2013-08-06 15:14:00,75.6,29.1,29.97,East,79,0.0,6.3,18,0.00,,---,0.00,VWS V12.07,2013-08-06 19:14:00,
2013-08-06 15:20:00,75.6,29.1,29.97,ENE,60,4.0,4.0,18,0.00,,---,0.00,VWS V12.07,2013-08-06 19:20:00,
2013-08-06 15:26:00,75.4,29.0,29.97,East,99,0.0,4.0,18,0.00,,---,0.00,VWS V12.07,2013-08-06 19:26:00,
2013-08-06 15:32:00,75.6,29.1,29.97,ENE,65,0.0,5.8,18,0.00,,---,0.00,VWS V12.07,2013-08-06 19:32:00,
2013-08-06 15:38:00,75.6,29.1,29.97,SE,140,0.0,5.8,18,0.00,,---,0.00,VWS V12.07,2013-08-06 19:38:00,
2013-08-06 15:44:00,76.1,29.6,29.97,East,85,0.0,5.8,18,0.00,,---,0.00,VWS V12.07,2013-08-06 19:44:00,
2013-08-06 15:50:00,76.3,29.7,29.97,NE,56,0.0,4.0,18,0.00,,---,0.00,VWS V12.07,2013-08-06 19:50:00,
2013-08-06 15:56:00,76.1,29.6,29.94,ESE,121,0.0,5.8,18,0.00,,---,0.00,VWS V12.07,2013-08-06 19:56:00,
2013-08-06 16:03:00,76.1,29.6,29.94,East,96,0.0,3.6,18,0.00,,---,0.00,VWS V12.07,2013-08-06 20:03:00,
2013-08-06 16:09:00,75.7,29.3,29.94,ESE,109,3.1,8.7,18,0.00,,---,0.00,VWS V12.07,2013-08-06 20:09:00,
2013-08-06 16:15:00,75.4,29.0,29.97,SE,139,2.7,2.7,18,0.00,,---,0.00,VWS V12.07,2013-08-06 20:15:00,
2013-08-06 16:23:00,74.8,28.5,29.97,East,98,2.7,4.0,18,0.00,,---,0.00,VWS V12.07,2013-08-06 20:23:00,
2013-08-06 16:31:00,73.9,27.8,29.97,SE,124,0.0,4.9,18,0.00,,---,0.00,VWS V12.07,2013-08-06 20:31:00,
2013-08-06 16:37:00,73.6,27.5,29.97,East,84,0.0,4.9,18,0.00,,---,0.00,VWS V12.07,2013-08-06 20:37:00,
2013-08-06 16:42:00,73.2,28.5,29.97,East,87,0.0,4.9,19,0.00,,---,0.00,VWS V12.07,2013-08-06 20:42:00,
2013-08-06 16:48:00,73.2,28.5,29.97,SE,133,0.0,0.0,19,0.00,,---,0.00,VWS V12.07,2013-08-06 20:48:00,
2013-08-06 16:51:00,73.4,27.4,29.97,SE,141,2.7,3.6,18,0.00,,---,0.00,VWS V12.07,2013-08-06 20:51:00,
2013-08-06 16:57:00,74.1,27.9,29.97,East,85,0.0,4.9,18,0.00,,---,0.00,VWS V12.07,2013-08-06 20:57:00,
2013-08-06 17:03:00,74.7,28.4,29.97,East,82,2.2,2.2,18,0.00,,---,0.00,VWS V12.07,2013-08-06 21:03:00,
2013-08-06 17:09:00,74.5,28.2,29.97,East,88,0.0,3.1,18,0.00,,---,0.00,VWS V12.07,2013-08-06 21:09:00,
2013-08-06 17:14:00,74.3,28.1,29.97,ENE,68,0.0,3.1,18,0.00,,---,0.00,VWS V12.07,2013-08-06 21:14:00,
2013-08-06 17:20:00,74.7,28.4,29.97,East,86,0.0,4.0,18,0.00,,---,0.00,VWS V12.07,2013-08-06 21:20:00,
2013-08-06 17:26:00,74.5,28.2,29.97,East,87,0.0,4.0,18,0.00,,---,0.00,VWS V12.07,2013-08-06 21:26:00,
2013-08-06 17:32:00,74.3,28.1,29.97,East,88,0.0,3.1,18,0.00,,---,0.00,VWS V12.07,2013-08-06 21:32:00,
2013-08-06 17:38:00,73.9,27.8,29.97,East,101,0.0,4.0,18,0.00,,---,0.00,VWS V12.07,2013-08-06 21:38:00,
2013-08-06 17:44:00,73.9,27.8,29.97,SE,145,0.0,4.0,18,0.00,,---,0.00,VWS V12.07,2013-08-06 21:44:00,
2013-08-06 17:49:00,73.8,27.6,29.97,East,95,4.0,4.0,18,0.00,,---,0.00,VWS V12.07,2013-08-06 21:49:00,
2013-08-06 17:55:00,73.8,27.6,29.97,East,92,0.0,4.0,18,0.00,,---,0.00,VWS V12.07,2013-08-06 21:55:00,
2013-08-06 18:01:00,73.8,27.6,29.97,East,81,0.0,0.0,18,0.00,,---,0.00,VWS V12.07,2013-08-06 22:01:00,
2013-08-06 18:07:00,73.4,24.5,29.97,East,82,0.0,0.0,16,0.00,,---,0.00,VWS V12.07,2013-08-06 22:07:00,
2013-08-06 18:13:00,73.4,24.5,29.97,East,87,0.0,2.7,16,0.00,,---,0.00,VWS V12.07,2013-08-06 22:13:00,
2013-08-06 18:19:00,73.2,24.4,29.97,East,84,0.0,2.2,16,0.00,,---,0.00,VWS V12.07,2013-08-06 22:19:00,
2013-08-06 18:25:00,73.2,24.4,29.97,East,81,0.0,3.1,16,0.00,,---,0.00,VWS V12.07,2013-08-06 22:25:00,
2013-08-06 18:31:00,73.0,28.4,29.97,SSE,148,2.7,6.3,19,0.00,,---,0.00,VWS V12.07,2013-08-06 22:31:00,
2013-08-06 18:37:00,72.9,28.2,29.97,East,100,2.7,6.3,19,0.00,,---,0.00,VWS V12.07,2013-08-06 22:37:00,
2013-08-06 18:43:00,72.7,28.1,29.97,SE,143,0.0,6.3,19,0.00,,---,0.00,VWS V12.07,2013-08-06 22:43:00,
2013-08-06 18:49:00,72.5,27.9,29.97,East,95,0.0,0.0,19,0.00,,---,0.00,VWS V12.07,2013-08-06 22:49:00,
2013-08-06 18:55:00,72.1,27.6,29.97,ESE,119,0.0,0.0,19,0.00,,---,0.00,VWS V12.07,2013-08-06 22:55:00,
2013-08-06 19:01:00,71.8,27.3,29.97,ESE,119,0.0,0.0,19,0.00,,---,0.00,VWS V12.07,2013-08-06 23:01:00,
2013-08-06 19:07:00,71.6,27.2,29.97,East,98,0.0,0.0,19,0.00,,---,0.00,VWS V12.07,2013-08-06 23:07:00,
2013-08-06 19:13:00,71.4,27.0,29.97,East,97,0.0,0.0,19,0.00,,---,0.00,VWS V12.07,2013-08-06 23:13:00,
2013-08-06 19:19:00,71.4,27.0,29.97,SSE,152,0.0,2.2,19,0.00,,---,0.00,VWS V12.07,2013-08-06 23:19:00,
2013-08-06 19:25:00,71.4,30.6,29.97,ENE,66,0.0,2.2,22,0.00,,---,0.00,VWS V12.07,2013-08-06 23:25:00,
2013-08-06 19:31:00,71.1,30.3,29.97,ENE,66,0.0,0.0,22,0.00,,---,0.00,VWS V12.07,2013-08-06 23:31:00,
2013-08-06 19:37:00,70.7,30.0,29.97,ENE,66,0.0,0.0,22,0.00,,---,0.00,VWS V12.07,2013-08-06 23:37:00,
2013-08-06 19:43:00,70.5,29.9,29.97,ENE,66,0.0,0.0,22,0.00,,---,0.00,VWS V12.07,2013-08-06 23:43:00,
2013-08-06 19:49:00,70.2,30.7,29.97,ENE,66,0.0,0.0,23,0.00,,---,0.00,VWS V12.07,2013-08-06 23:49:00,
2013-08-06 19:55:00,70.0,30.5,29.97,ENE,66,0.0,0.0,23,0.00,,---,0.00,VWS V12.07,2013-08-06 23:55:00,
2013-08-06 20:01:00,69.8,30.4,29.97,ENE,66,0.0,0.0,23,0.00,,---,0.00,VWS V12.07,2013-08-07 00:01:00,
2013-08-06 20:07:00,69.6,31.3,29.97,ENE,67,0.0,0.0,24,0.00,,---,0.00,VWS V12.07,2013-08-07 00:07:00,
2013-08-06 20:13:00,69.4,31.1,29.97,ENE,66,0.0,0.0,24,0.00,,---,0.00,VWS V12.07,2013-08-07 00:13:00,
2013-08-06 20:19:00,69.3,31.0,29.97,SE,132,0.0,0.0,24,0.00,,---,0.00,VWS V12.07,2013-08-07 00:19:00,
2013-08-06 20:27:00,69.3,32.0,29.97,SE,131,0.0,0.0,25,0.00,,---,0.00,VWS V12.07,2013-08-07 00:27:00,
2013-08-06 20:33:00,69.1,32.8,29.97,SE,132,0.0,0.0,26,0.00,,---,0.00,VWS V12.07,2013-08-07 00:33:00,
2013-08-06 20:38:00,68.9,32.6,29.97,SE,132,0.0,0.0,26,0.00,,---,0.00,VWS V12.07,2013-08-07 00:38:00,
2013-08-06 20:44:00,68.9,33.6,30.00,SE,124,0.0,0.0,27,0.00,,---,0.00,VWS V12.07,2013-08-07 00:44:00,
2013-08-06 20:50:00,68.7,34.3,30.00,SE,124,0.0,0.0,28,0.00,,---,0.00,VWS V12.07,2013-08-07 00:50:00,
2013-08-06 20:56:00,68.7,34.3,30.00,SE,124,0.0,0.0,28,0.00,,---,0.00,VWS V12.07,2013-08-07 00:56:00,
2013-08-06 21:02:00,68.5,35.0,30.00,SE,124,0.0,0.0,29,0.00,,---,0.00,VWS V12.07,2013-08-07 01:02:00,
2013-08-06 21:08:00,68.7,34.3,30.00,SSE,147,0.0,3.1,28,0.00,,---,0.00,VWS V12.07,2013-08-07 01:08:00,
2013-08-06 21:16:00,68.5,34.2,30.00,SSE,147,0.0,0.0,28,0.00,,---,0.00,VWS V12.07,2013-08-07 01:16:00,
2013-08-06 21:22:00,68.5,34.2,30.00,SSE,147,0.0,0.0,28,0.00,,---,0.00,VWS V12.07,2013-08-07 01:22:00,
2013-08-06 21:28:00,68.5,34.2,30.00,SSE,147,0.0,0.0,28,0.00,,---,0.00,VWS V12.07,2013-08-07 01:28:00,
2013-08-06 21:34:00,68.4,34.0,30.00,SE,146,0.0,0.0,28,0.00,,---,0.00,VWS V12.07,2013-08-07 01:34:00,
2013-08-06 21:40:00,68.4,34.0,30.00,SE,146,0.0,0.0,28,0.00,,---,0.00,VWS V12.07,2013-08-07 01:40:00,
2013-08-06 21:46:00,68.4,34.0,30.00,SSE,147,0.0,0.0,28,0.00,,---,0.00,VWS V12.07,2013-08-07 01:46:00,
2013-08-06 21:52:00,68.4,34.0,30.00,SSE,147,0.0,0.0,28,0.00,,---,0.00,VWS V12.07,2013-08-07 01:52:00,
2013-08-06 21:58:00,68.4,34.0,29.97,SSE,147,0.0,0.0,28,0.00,,---,0.00,VWS V12.07,2013-08-07 01:58:00,
2013-08-06 22:04:00,68.4,34.9,29.97,SSE,147,0.0,0.0,29,0.00,,---,0.00,VWS V12.07,2013-08-07 02:04:00,
2013-08-06 22:11:00,68.4,34.9,29.97,SSE,147,0.0,0.0,29,0.00,,---,0.00,VWS V12.07,2013-08-07 02:11:00,
2013-08-06 22:17:00,68.4,34.9,29.97,SE,146,0.0,0.0,29,0.00,,---,0.00,VWS V12.07,2013-08-07 02:17:00,
2013-08-06 22:23:00,68.2,34.7,29.97,SSE,147,0.0,0.0,29,0.00,,---,0.00,VWS V12.07,2013-08-07 02:23:00,
2013-08-06 22:29:00,67.8,34.4,29.97,SE,146,0.0,0.0,29,0.00,,---,0.00,VWS V12.07,2013-08-07 02:29:00,
2013-08-06 22:35:00,67.5,34.1,29.97,SSE,147,0.0,0.0,29,0.00,,---,0.00,VWS V12.07,2013-08-07 02:35:00,
2013-08-06 22:41:00,67.5,35.0,29.97,SSE,147,0.0,0.0,30,0.00,,---,0.00,VWS V12.07,2013-08-07 02:41:00,
2013-08-06 22:47:00,67.3,35.6,29.97,SE,146,0.0,0.0,31,0.00,,---,0.00,VWS V12.07,2013-08-07 02:47:00,
2013-08-06 22:52:00,66.9,35.3,29.97,SE,146,0.0,0.0,31,0.00,,---,0.00,VWS V12.07,2013-08-07 02:52:00,
2013-08-06 22:58:00,66.6,35.0,29.97,SSE,147,0.0,0.0,31,0.00,,---,0.00,VWS V12.07,2013-08-07 02:58:00,
2013-08-06 23:04:00,66.2,35.5,29.97,SE,146,0.0,0.0,32,0.00,,---,0.00,VWS V12.07,2013-08-07 03:04:00,
2013-08-06 23:10:00,66.0,36.1,29.97,SSE,147,0.0,0.0,33,0.00,,---,0.00,VWS V12.07,2013-08-07 03:10:00,
2013-08-06 23:16:00,66.0,36.1,29.97,SSE,147,0.0,0.0,33,0.00,,---,0.00,VWS V12.07,2013-08-07 03:16:00,
2013-08-06 23:22:00,65.8,36.0,29.97,SSE,147,0.0,0.0,33,0.00,,---,0.00,VWS V12.07,2013-08-07 03:22:00,
2013-08-06 23:28:00,65.5,36.4,29.97,SSE,147,0.0,0.0,34,0.00,,---,0.00,VWS V12.07,2013-08-07 03:28:00,
2013-08-06 23:34:00,65.1,36.1,29.97,SSE,147,0.0,0.0,34,0.00,,---,0.00,VWS V12.07,2013-08-07 03:34:00,
2013-08-06 23:40:00,64.9,35.9,29.97,SE,146,0.0,0.0,34,0.00,,---,0.00,VWS V12.07,2013-08-07 03:40:00,
2013-08-06 23:46:00,64.9,35.9,29.97,SSE,147,0.0,0.0,34,0.00,,---,0.00,VWS V12.07,2013-08-07 03:46:00,
2013-08-06 23:52:00,64.8,35.8,29.97,SSE,147,0.0,0.0,34,0.00,,---,0.00,VWS V12.07,2013-08-07 03:52:00,
2013-08-06 23:58:00,64.6,35.6,29.97,SE,146,0.0,0.0,34,0.00,,---,0.00,VWS V12.07,2013-08-07 03:58:00,